Date String (YYYY-MM-DD hh:mm:ss) UTC,Instrument flags,absolute air pressure of the measurement (hPa),sample flow rate (lpm),inlet stack bypass flow (lpm),air temperature of the measurement (°C),ambient temperature measured by the external sensor (°C),aerosol sample conditioner tube jacket temperature (°C),OPC LED temperature (°C),internal box temperature (°C),relative humidity of the measurement (%),span deviation,mass concentration of particles derived from Lorenz-Mie calculation of OPC scattering (μg/m³),mass concentration of particles derived from Lorenz-Mie calculation of OPC scattering (μg/m³),mass concentration of particles derived from Lorenz-Mie calculation of OPC scattering (μg/m³)
DateTimeUTC,F1_M11,P_M11,Q1_M11,Q2_M11,T1_M11,T2_M11,T3_M11,T4_M11,T5_M11,U1_M11,ZSPAN_M11,X2_M11,X0_M11,X1_M11
2023-08-11 11:00:00,SystemResetWarning,0829.8,5.01,000.00,029.6,025.7,000.0,037.9,030.8,20.2,0000.0,0003.62,0006.56,0003.23
2023-08-11 11:01:00,SystemResetWarning,0829.8,5.01,000.00,029.5,025.9,000.0,038.0,030.7,20.3,0000.0,0003.59,0006.44,0003.21
2023-08-11 11:02:00,SystemResetWarning,0829.7,5.00,000.00,029.4,026.3,000.0,038.0,030.8,20.3,0000.0,0003.56,0006.26,0003.21
2023-08-11 11:03:00,SystemResetWarning,0829.8,5.00,000.00,029.4,026.7,000.0,038.0,030.9,20.3,0000.0,0003.55,0006.55,0003.21
2023-08-11 11:04:00,SystemResetWarning,0829.8,5.00,000.00,029.4,027.0,000.0,038.0,030.9,20.3,0000.0,0003.57,0007.42,0003.21
2023-08-11 11:05:00,SystemResetWarning,0829.8,5.00,000.00,029.4,027.3,000.0,038.0,031.0,20.3,0000.0,0003.53,0007.99,0003.19
2023-08-11 11:06:00,SystemResetWarning,0829.8,5.00,000.00,029.4,027.5,000.0,038.0,031.0,20.3,0000.0,0003.53,0008.40,0003.18
2023-08-11 11:07:00,SystemResetWarning,0829.9,5.01,000.00,029.4,027.7,000.0,038.1,031.1,20.2,0000.0,0003.52,0008.10,0003.17
2023-08-11 11:08:00,SystemResetWarning,0829.9,5.00,000.00,029.5,027.9,000.0,038.1,031.1,20.2,0000.0,0003.52,0008.01,0003.16
2023-08-11 11:09:00,SystemResetWarning,0830.0,5.00,000.00,029.5,028.0,000.0,038.1,031.2,20.1,0000.0,0003.52,0008.00,0003.16
2023-08-11 11:10:00,SystemResetWarning,0830.0,5.00,000.00,029.5,028.1,000.0,038.1,031.2,20.5,0000.0,0003.57,0008.22,0003.16
2023-08-11 11:11:00,SystemResetWarning,0830.0,5.00,000.00,029.6,028.3,000.0,038.1,031.2,20.4,0000.0,0003.56,0008.70,0003.15
2023-08-11 11:12:00,SystemResetWarning,0830.0,5.00,000.00,029.6,028.3,000.0,038.1,031.3,20.3,0000.0,0003.57,0008.91,0003.15
2023-08-11 11:13:00,SystemResetWarning,0830.0,5.00,000.00,029.6,028.4,000.0,038.2,031.3,20.2,0000.0,0003.55,0008.92,0003.13
2023-08-11 11:14:00,SystemResetWarning,0830.0,5.00,000.00,029.6,028.5,000.0,038.2,031.4,20.1,0000.0,0003.54,0008.79,0003.13
2023-08-11 11:15:00,SystemResetWarning,0830.0,4.99,000.00,029.7,028.1,000.0,038.1,031.3,20.0,0000.0,0003.53,0008.27,0003.13
2023-08-11 11:16:00,SystemResetWarning,0830.0,5.00,000.00,029.6,026.2,000.0,038.0,031.1,19.9,0000.0,0003.54,0007.69,0003.13
2023-08-11 11:17:00,SystemResetWarning,0830.1,5.01,000.00,029.6,025.6,000.0,037.9,030.9,19.9,0000.0,0003.56,0007.34,0003.14
2023-08-11 11:18:00,SystemResetWarning,0830.0,5.01,000.00,029.5,025.7,000.0,037.9,030.7,20.1,0000.0,0003.58,0007.29,0003.15
2023-08-11 11:19:00,SystemResetWarning,0830.0,4.99,000.00,029.4,026.0,000.0,038.0,030.7,20.3,0000.0,0003.56,0007.13,0003.14
2023-08-11 11:20:00,SystemResetWarning,0830.0,5.00,000.00,029.4,026.4,000.0,038.0,030.8,20.3,0000.0,0003.54,0007.10,0003.14
2023-08-11 11:21:00,SystemResetWarning,0830.0,5.00,000.00,029.4,026.8,000.0,038.0,030.8,20.3,0000.0,0003.51,0006.89,0003.14
2023-08-11 11:22:00,SystemResetWarning,0830.0,5.00,000.00,029.4,027.1,000.0,038.0,030.9,20.5,0000.0,0003.51,0006.19,0003.14
2023-08-11 11:23:00,SystemResetWarning,0830.0,5.00,000.00,029.4,027.3,000.0,038.0,031.0,20.4,0000.0,0003.49,0005.52,0003.15
2023-08-11 11:24:00,SystemResetWarning,0830.0,5.00,000.00,029.4,027.6,000.0,038.0,031.0,20.3,0000.0,0003.50,0005.55,0003.16
2023-08-11 11:25:00,SystemResetWarning,0830.0,5.00,000.00,029.4,027.7,000.0,038.0,031.1,20.2,0000.0,0003.51,0005.53,0003.15
2023-08-11 11:26:00,SystemResetWarning,0830.0,4.98,000.00,029.4,027.9,000.0,038.0,031.1,20.1,0000.0,0003.52,0005.47,0003.15
2023-08-11 11:27:00,SystemResetWarning,0830.0,5.00,000.00,029.5,028.0,000.0,038.0,031.2,20.1,0000.0,0003.53,0005.81,0003.16
2023-08-11 11:28:00,SystemResetWarning,0830.0,5.01,000.00,029.5,028.1,000.0,038.0,031.2,20.2,0000.0,0003.53,0006.50,0003.17
2023-08-11 11:29:00,SystemResetWarning,0830.0,5.00,000.00,029.5,028.2,000.0,038.1,031.2,20.2,0000.0,0003.51,0006.40,0003.17
2023-08-11 11:30:00,SystemResetWarning,0830.0,4.99,000.00,029.6,028.3,000.0,038.1,031.3,20.1,0000.0,0003.52,0006.33,0003.18
2023-08-11 11:31:00,SystemResetWarning,0830.0,5.00,000.00,029.6,028.4,000.0,038.1,031.3,20.1,0000.0,0003.53,0006.39,0003.18
2023-08-11 11:32:00,SystemResetWarning,0830.1,5.01,000.00,029.6,028.4,000.0,038.1,031.3,20.1,0000.0,0003.54,0006.44,0003.19
2023-08-11 11:33:00,SystemResetWarning,0830.0,5.01,000.00,029.7,028.5,000.0,038.2,031.3,20.1,0000.0,0003.55,0006.52,0003.20
2023-08-11 11:34:00,SystemResetWarning,0830.0,5.00,000.00,029.7,028.6,000.0,038.2,031.4,20.1,0000.0,0003.59,0006.67,0003.21
2023-08-11 11:35:00,SystemResetWarning,0830.0,4.99,000.00,029.7,027.7,000.0,038.1,031.3,20.1,0000.0,0003.61,0006.83,0003.21
2023-08-11 11:36:00,SystemResetWarning,0830.0,5.01,000.00,029.6,025.9,000.0,038.0,031.0,20.2,0000.0,0003.62,0006.80,0003.21
2023-08-11 11:37:00,SystemResetWarning,0830.0,5.01,000.00,029.6,025.6,000.0,037.9,030.8,20.3,0000.0,0003.65,0006.98,0003.22
2023-08-11 11:38:00,SystemResetWarning,0830.0,4.99,000.00,029.5,025.8,000.0,037.9,030.6,20.3,0000.0,0003.63,0006.66,0003.22
2023-08-11 11:39:00,SystemResetWarning,0830.1,5.00,000.00,029.4,026.2,000.0,038.0,030.7,20.3,0000.0,0003.63,0005.76,0003.22
2023-08-11 11:40:00,SystemResetWarning,0830.1,5.00,000.00,029.4,026.5,000.0,038.0,030.8,20.3,0000.0,0003.64,0006.37,0003.22
2023-08-11 11:41:00,SystemResetWarning,0830.1,5.00,000.00,029.4,026.9,000.0,038.0,030.9,20.4,0000.0,0003.67,0006.54,0003.23
2023-08-11 11:42:00,SystemResetWarning,0830.2,4.99,000.00,029.4,027.2,000.0,038.0,030.9,20.5,0000.0,0003.66,0006.49,0003.24
2023-08-11 11:43:00,SystemResetWarning,0830.3,5.00,000.00,029.4,027.4,000.0,038.0,031.0,20.5,0000.0,0003.64,0006.38,0003.23
2023-08-11 11:44:00,SystemResetWarning,0830.3,5.00,000.00,029.4,027.7,000.0,038.0,031.1,20.3,0000.0,0003.64,0006.37,0003.22
2023-08-11 11:45:00,SystemResetWarning,0830.3,5.00,000.00,029.4,027.9,000.0,038.0,031.1,20.2,0000.0,0003.64,0006.78,0003.22
2023-08-11 11:46:00,SystemResetWarning,0830.2,5.01,000.00,029.5,028.0,000.0,038.0,031.2,20.1,0000.0,0003.61,0007.26,0003.22
2023-08-11 11:47:00,SystemResetWarning,0830.2,4.99,000.00,029.5,028.1,000.0,038.1,031.2,20.2,0000.0,0003.63,0007.32,0003.22
2023-08-11 11:48:00,SystemResetWarning,0830.2,4.99,000.00,029.5,028.2,000.0,038.1,031.2,20.1,0000.0,0003.59,0007.12,0003.21
2023-08-11 11:49:00,SystemResetWarning,0830.2,5.01,000.00,029.6,028.3,000.0,038.1,031.3,20.0,0000.0,0003.63,0007.23,0003.21
2023-08-11 11:50:00,SystemResetWarning,0830.3,5.01,000.00,029.6,028.4,000.0,038.1,031.3,20.0,0000.0,0003.63,0007.25,0003.21
2023-08-11 11:51:00,SystemResetWarning,0830.2,5.01,000.00,029.6,028.5,000.0,038.1,031.3,20.0,0000.0,0003.63,0006.69,0003.20
2023-08-11 11:52:00,SystemResetWarning,0830.2,4.98,000.00,029.6,027.7,000.0,038.1,031.3,20.0,0000.0,0003.62,0007.07,0003.18
2023-08-11 11:53:00,SystemResetWarning,0830.1,5.00,000.00,029.6,025.9,000.0,037.9,031.0,19.9,0000.0,0003.61,0007.12,0003.17
2023-08-11 11:54:00,SystemResetWarning,0830.1,5.01,000.00,029.5,025.5,000.0,037.9,030.8,20.0,0000.0,0003.60,0007.15,0003.16
2023-08-11 11:55:00,SystemResetWarning,0830.2,5.02,000.00,029.4,025.7,000.0,037.9,030.6,20.2,0000.0,0003.59,0007.16,0003.16
2023-08-11 11:56:00,SystemResetWarning,0830.1,5.00,000.00,029.3,026.1,000.0,037.9,030.6,20.3,0000.0,0003.56,0007.05,0003.16
2023-08-11 11:57:00,SystemResetWarning,0830.2,4.99,000.00,029.3,026.4,000.0,037.9,030.8,20.4,0000.0,0003.56,0006.52,0003.16
2023-08-11 11:58:00,SystemResetWarning,0830.2,5.00,000.00,029.3,026.8,000.0,037.9,030.8,20.4,0000.0,0003.55,0006.59,0003.15
2023-08-11 11:59:00,SystemResetWarning,0830.2,5.01,000.00,029.3,027.1,000.0,038.0,030.9,20.5,0000.0,0003.55,0006.64,0003.15
